EHI
9 8 7 9 13 17 19 21 24 28 30 29 28 27 27 28 29 29 27 25 24 22 22 22 22 22 22 20 19 18 15 12 11 8 3 1 0 0 0 1 2 3 5
10 10 8 7 10 14 17 19 23 27 29 28 27 25 25 26 26 25 25 24 23 22 20 19 20 21 21 19 19 18 14 11 9 6 3 0 0 0 1 1 1 2 4
10 10 8 6 6 10 14 17 22 25 26 24 22 20 20 21 21 21 22 22 21 21 19 17 17 19 20 21 20 17 13 9 7 5 3 1 1 0 1 2 1 1 3
9 8 8 7 6 8 12 17 20 22 21 19 17 16 14 15 17 20 21 20 19 19 17 14 13 15 19 21 20 17 13 9 5 4 3 2 2 1 1 1 2 2 3
7 7 7 8 7 8 11 14 17 19 19 17 16 16 14 13 15 18 19 19 19 17 15 12 11 12 16 19 19 18 14 10 5 3 3 3 2 1 1 1 2 2 3
7 7 7 7 7 7 8 11 14 17 17 16 16 16 15 13 14 15 16 18 18 17 13 11 11 12 14 18 19 17 14 9 5 3 3 2 1 2 1 0 1 1 2
6 6 6 5 4 4 4 7 11 13 14 14 15 15 14 14 14 14 15 16 16 16 13 12 12 12 13 16 17 15 11 7 4 2 1 1 1 1 1 0 0 0 1
4 4 4 4 2 2 3 5 8 9 10 11 12 13 12 13 13 12 12 12 12 12 11 10 10 11 11 12 13 12 8 5 3 1 0 0 0 1 2 1 0 0 0
3 3 3 2 1 1 2 4 6 6 7 7 9 9 9 9 9 10 10 9 8 8 8 8 9 9 8 9 10 9 7 5 2 0 0 0 0 1 2 1 0 0 0
3 3 2 1 0 1 2 3 3 3 4 5 5 5 5 6 6 7 7 7 6 6 6 7 8 6 6 7 7 6 5 4 2 1 1 1 0 0 1 1 0 0 0
1 2 2 1 1 1 1 2 2 2 3 4 3 3 4 6 6 5 5 6 6 5 5 6 5 4 3 4 4 4 4 3 2 2 2 1 0 0 0 0 0 0 0
0 1 1 1 2 2 1 1 2 3 4 4 3 4 5 5 5 4 4 5 5 5 4 3 2 1 1 1 2 3 3 2 2 2 1 1 0 0 0 0 0 0 0
0 0 1 1 2 2 1 1 3 4 4 3 3 4 5 5 4 3 3 4 4 4 3 2 1 0 0 1 2 2 2 1 1 1 0 0 0 0 0 0 0 0 0
0 0 0 1 1 1 1 2 3 3 2 1 2 3 5 4 3 2 2 2 2 3 3 2 0 0 0 1 1 1 1 0 0 0 0 0 0 0 0 0 0 0 0
0 0 0 1 1 1 1 1 2 2 2 2 2 2 3 3 1 1 1 0 1 2 2 2 1 0 0 1 1 0 0 0 0 0 0 0 0 0 0 0 0 0 0
0 0 0 0 1 1 0 1 2 3 3 3 2 2 1 1 0 0 0 0 0 1 1 1 1 0 0 0 0 0 0 0 0 0 0 0 0 0 0 0 0 0 0
0 0 0 0 0 0 0 1 2 4 4 3 2 1 0 0 0 0 0 0 1 1 0 0 0 0 0 0 0 0 0 0 0 0 0 0 0 0 0 0 0 0 0
0 0 0 0 0 0 0 0 1 2 3 2 1 1 0 0 0 0 1 1 2 2 1 1 0 0 0 0 0 0 0 0 0 0 0 0 0 0 0 0 0 0 0
0 0 0 0 0 0 1 0 0 1 1 1 0 0 0 0 1 1 2 3 3 3 2 1 0 0 0 0 0 0 0 0 0 0 0 0 0 0 0 0 0 0 0
0 0 0 0 1 1 1 0 0 0 0 0 0 0 0 1 2 3 3 3 3 3 3 1 1 1 0 0 0 0 0 0 0 0 0 0 0 0 0 0 0 0 0
0 0 0 1 2 3 3 1 1 2 1 0 0 0 1 2 3 3 3 3 3 3 3 2 2 3 1 0 0 0 0 0 0 0 0 0 0 0 0 0 0 0 0
0 0 0 1 3 5 5 4 3 3 2 1 1 1 2 3 2 3 3 3 4 3 2 2 2 3 2 0 0 0 0 0 0 0 0 0 0 0 0 0 0 0 0
0 0 0 1 4 6 6 6 6 5 4 3 3 3 4 3 3 3 3 3 3 2 1 1 1 1 1 1 1 0 0 0 0 0 0 0 0 0 0 0 0 0 0
1 1 2 3 6 7 6 6 6 6 6 5 5 5 5 4 4 4 2 2 2 1 0 0 0 0 0 1 1 1 0 0 0 0 0 0 0 0 0 0 0 0 0
3 4 5 6 7 7 7 7 6 6 6 6 6 6 4 3 4 4 3 2 2 1 0 0 0 0 0 1 1 1 0 0 0 0 0 0 0 0 0 0 0 0 0
4 6 6 7 7 7 7 7 6 6 6 6 6 6 4 2 2 3 3 2 1 1 0 0 0 0 0 0 0 1 0 0 0 0 0 0 0 0 0 0 0 0 0
Wind_Speed
5 5 4 4 4 3 2 2 2 2 1 1 2 2 2 2 1 1 0 1 1 2 2 2 2 2 2 1 2 2 3 3 2 2 3 4 4 3 3 3 3 3 3
4 3 3 3 3 3 2 2 2 2 2 1 2 2 2 2 2 1 1 1 1 2 2 2 1 1 2 2 2 2 2 2 2 1 2 2 2 2 4 3 3 3 2
3 2 3 3 3 3 2 3 2 1 2 2 2 2 2 2 2 2 1 1 2 2 2 1 1 2 2 1 2 2 3 2 3 1 1 2 1 2 2 2 2 2 2
3 3 4 4 3 3 3 3 2 1 1 2 2 3 3 3 3 2 1 1 2 2 1 1 2 2 2 2 3 2 3 3 3 2 2 2 1 2 2 2 2 3 4
2 3 4 4 4 4 4 3 2 1 1 1 2 3 3 3 3 3 2 2 2 2 1 1 2 2 2 2 3 2 3 2 2 2 2 3 2 3 3 4 3 3 3
3 4 5 5 4 4 4 3 2 2 2 2 2 3 3 4 4 3 3 2 1 1 1 1 1 2 2 2 2 2 3 2 3 3 3 2 2 3 3 3 4 4 3
5 5 5 4 4 4 4 4 3 3 2 2 2 3 3 4 3 3 3 3 1 1 1 1 1 2 2 3 2 3 3 3 4 3 3 3 3 3 3 4 4 4 3
5 4 4 4 4 4 4 4 3 3 3 2 2 3 3 3 2 3 3 2 2 2 1 1 2 2 3 3 3 3 3 3 3 5 3 3 3 3 3 3 3 4 3
5 4 3 3 3 3 3 3 3 3 3 3 2 2 2 2 3 3 3 2 2 2 1 2 2 2 3 3 3 3 3 3 4 4 4 3 3 3 3 3 3 3 4
5 5 4 3 2 2 2 2 2 3 3 3 3 3 3 2 2 3 3 3 3 2 2 3 3 3 3 3 3 3 3 3 3 3 3 3 3 3 3 2 2 2 3
5 4 4 3 2 2 3 2 3 3 3 3 3 3 3 3 2 2 3 3 3 3 3 3 3 3 3 3 3 4 3 3 3 3 3 3 3 3 3 2 2 2 2
6 5 5 4 3 4 4 3 3 3 3 3 3 3 3 3 3 2 2 3 3 3 3 3 4 4 3 2 3 4 4 3 3 3 3 3 3 2 2 2 3 2 2
6 6 6 5 4 5 5 5 4 5 4 4 3 3 3 3 3 2 2 3 2 3 3 3 3 3 3 3 3 3 4 3 3 2 2 2 2 3 2 2 2 2 3
5 6 6 5 5 5 5 5 5 5 4 4 3 2 2 3 2 2 2 3 3 3 3 3 3 3 3 4 4 4 3 3 3 2 2 2 2 3 2 2 2 2 2
7 7 7 6 5 5 5 5 6 5 5 4 3 3 2 2 2 2 2 2 3 3 3 3 4 4 3 4 5 5 4 3 3 3 2 2 2 3 3 3 3 3 2
7 7 6 6 6 6 6 5 5 5 5 4 4 3 3 2 2 2 2 3 3 4 3 4 4 4 5 6 7 6 5 3 3 3 3 3 3 5 4 4 5 4 3
6 6 6 5 5 5 5 6 5 4 4 4 4 3 3 3 2 3 3 3 3 3 3 3 3 4 5 6 7 7 4 3 2 2 2 3 4 4 4 4 5 4 5
6 6 6 5 5 4 4 5 5 4 4 4 4 4 4 4 3 3 3 3 2 2 2 2 2 3 4 5 6 8 4 3 3 2 2 2 3 5 5 4 4 3 3
5 5 4 5 4 5 5 4 5 4 4 4 4 4 4 4 3 3 3 3 2 2 2 2 2 2 3 4 6 6 4 3 3 3 3 3 3 5 7 4 4 5 4
3 4 5 4 4 4 4 4 5 4 4 5 4 4 3 3 3 3 2 2 2 2 2 2 2 2 2 3 5 7 3 4 4 2 2 4 4 4 6 4 4 5 5
3 4 4 4 3 3 3 4 4 4 4 4 4 4 3 3 2 2 2 2 2 2 2 2 1 1 2 2 4 5 3 4 4 3 2 2 3 5 6 5 4 6 6
3 3 4 4 3 3 3 3 3 3 3 3 3 3 3 3 3 2 2 2 2 2 2 1 1 1 2 3 3 4 4 5 4 4 3 3 5 7 8 6 6 8 7
3 2 3 3 3 2 2 3 3 3 3 3 3 3 3 3 2 1 2 2 2 2 3 2 2 2 2 2 4 4 5 6 3 3 6 6 7 7 6 6 7 6 3
2 2 3 3 3 3 2 2 2 2 3 3 3 2 2 2 1 1 1 1 2 2 2 3 3 3 2 3 3 3 4 5 4 4 6 7 6 5 6 5 3 2 2
2 2 3 3 4 3 2 2 2 2 2 3 3 3 3 2 1 1 1 1 1 1 1 2 2 3 3 3 4 3 4 4 4 6 5 3 3 3 3 3 2 2 2
2 2 3 4 4 3 3 2 2 2 2 3 3 3 3 2 1 1 0 2 0 1 1 0 1 1 1 2 4 5 6 7 7 5 4 4 3 4 4 3 3 2 2
Wind_Direction
99 89 68 53 61 71 74 67 60 63 4 359 321 311 303 303 296 264 218 291 286 287 276 294 282 282 281 292 297 296 296 286 281 292 296 275 251 235 236 232 234 234 232
74 67 65 57 53 56 59 71 57 39 2 342 297 285 297 286 273 287 252 249 257 271 271 279 291 293 291 294 286 282 278 284 296 290 302 292 273 286 258 234 230 230 231
49 19 4 38 37 39 44 38 48 35 3 332 321 327 304 288 292 291 255 257 257 255 274 274 285 291 280 283 279 274 276 285 287 261 248 274 288 310 275 273 269 283 264
18 1 351 13 30 29 33 45 37 29 353 325 331 314 306 306 310 310 301 293 267 259 248 277 283 278 285 283 284 292 276 271 283 281 254 260 276 274 292 288 277 267 260
8 357 3 21 27 25 25 32 31 25 347 310 305 298 311 308 311 315 313 285 272 251 222 212 252 270 274 278 284 291 281 270 275 278 277 276 272 250 253 282 286 274 260
19 29 18 28 27 17 11 15 15 11 351 318 311 305 311 305 303 304 303 296 283 273 291 262 271 278 282 281 280 277 280 281 276 278 279 272 267 271 263 271 276 277 270
32 33 22 19 9 3 2 3 6 349 334 318 318 313 309 298 293 294 301 299 297 301 305 318 297 286 287 278 273 274 272 274 274 267 270 274 269 274 269 270 274 277 277
26 24 18 13 8 2 0 354 359 341 330 323 313 302 311 305 309 313 306 301 303 308 317 308 284 276 276 286 278 267 265 267 265 268 265 270 270 268 268 271 278 284 285
13 10 14 18 3 351 1 348 346 342 337 336 321 305 319 314 322 315 302 303 304 295 318 298 291 292 292 290 285 275 274 273 265 264 263 265 267 270 270 266 262 266 285
11 5 358 4 358 354 13 356 348 338 336 342 324 332 321 305 309 309 316 312 314 324 306 297 294 286 280 282 281 280 271 273 270 265 270 277 281 276 274 274 281 272 267
-0 1 352 352 12 357 360 349 335 327 337 339 342 330 322 323 316 317 323 323 317 309 298 305 302 294 290 294 292 289 280 276 277 281 276 276 288 299 302 303 288 278 276
355 1 5 9 15 4 353 347 342 337 342 348 347 346 345 336 323 326 318 309 310 310 310 307 304 305 311 308 301 302 301 294 288 292 303 305 304 310 305 305 299 291 281
358 0 9 9 15 4 357 358 357 352 352 355 355 0 343 334 333 328 318 315 313 315 318 314 319 325 325 330 325 322 317 317 310 308 309 311 321 312 301 290 297 299 298
1 2 7 12 16 6 3 356 353 354 351 351 359 350 342 339 332 330 330 324 326 329 333 338 342 345 356 6 356 344 333 340 338 336 338 334 320 303 301 293 294 294 295
4 8 5 10 10 5 2 357 353 354 349 340 345 341 341 337 338 341 333 337 346 348 355 1 1 3 16 12 6 352 346 345 342 353 358 346 347 342 320 320 318 312 301
359 359 4 7 5 2 354 352 352 350 348 344 347 352 350 345 357 355 2 4 0 353 360 5 6 16 16 21 17 2 342 346 342 352 342 334 358 349 338 326 314 308 304
353 354 7 10 360 352 347 342 342 342 343 346 347 356 354 352 10 6 15 8 355 351 358 8 23 41 39 25 9 359 335 327 327 331 331 337 351 356 338 320 312 304 277
354 356 358 357 355 349 345 337 335 342 345 348 354 2 8 8 12 15 11 4 350 340 352 357 23 53 44 25 7 350 332 328 329 327 335 345 355 355 339 326 328 320 307
358 351 354 350 349 352 349 337 336 349 352 353 2 10 9 6 3 12 4 358 345 337 339 352 27 56 53 21 1 350 333 338 335 357 23 13 22 357 348 337 329 321 313
356 350 349 349 352 354 344 336 340 350 356 357 1 3 1 354 356 2 357 350 345 352 344 356 20 57 57 22 0 353 340 344 340 359 48 39 16 351 345 333 322 316 315
344 348 346 347 351 344 338 335 343 349 349 355 1 358 352 338 351 5 354 340 340 338 323 335 355 53 65 42 10 360 349 342 339 342 351 7 341 331 325 315 296 292 301
343 342 338 337 341 343 339 333 341 338 337 349 350 346 340 332 4 13 339 330 330 330 325 331 347 67 77 52 12 346 331 324 329 332 340 342 324 319 312 307 295 300 304
339 325 315 322 333 333 331 323 325 326 331 336 331 322 324 323 334 343 328 332 334 334 340 358 6 10 31 25 11 346 333 330 326 330 332 323 307 308 303 294 295 301 307
304 302 309 315 319 320 317 308 311 318 322 321 315 304 296 289 313 323 326 334 340 351 352 356 1 359 12 14 1 341 334 336 329 326 319 310 299 299 306 314 311 304 320
298 303 304 304 308 311 304 302 303 307 305 306 301 296 292 278 271 312 341 336 12 27 357 356 354 354 357 354 335 321 323 328 329 321 302 304 320 324 322 323 324 319 314
277 274 287 298 306 307 299 285 273 280 285 295 300 296 285 270 238 210 250 12 218 164 120 138 303 356 347 303 309 309 306 311 321 321 314 328 329 329 329 330 333 334 339